Location: Rosenheim
(47.8408°N, 12.2113°E)
Time: 08:28:57
(UTC+02:00)

ISS - Pass Details

Date: 10 February 2018
Orbit: 402 x 406 km, 51.6° (Epoch: 21 June)

Event Time Altitude Azimuth Distance (km) Brightness Sun altitude
Rises 18:31:41 0° 292° (WNW) 2,321 1.1 -11.5°
Reaches altitude 10° 18:33:47 10° 288° (WNW) 1,459 0.1 -11.9°
Maximum altitude 18:36:59 52° 211° (SSW) 509 -3.1 -12.4°
Enters shadow 18:39:56 12° 134° (SE) 1,364 -1.5 -12.9°
